This is the latest recevied weather packets stored in our database for station/object WBGG. If no packets are shown the sender has not sent any weather packets the latest 10 day(s).
| Time | Temp. | Humidity | Pressure | Rain* | Wind** | Luminosity | Snow |
|---|---|---|---|---|---|---|---|
| 1777540203 | 30° C | 79% | 1007 hPa | - | - | - | - |
| 1777538378 | 28.89° C | 83% | 1007 hPa | - | - | - | - |
| 1777536595 | 28.89° C | 83% | 1007 hPa | - | - | - | - |
| 1777534777 | 27.78° C | 88% | 1008 hPa | - | - | - | - |
| 1777532995 | 26.67° C | 94% | 1008 hPa | - | - | - | - |
| 1777531176 | 27.78° C | 88% | 1008 hPa | - | - | - | - |
| 1777529394 | 26.67° C | 88% | 1008 hPa | - | - | - | - |
| 1777527576 | 26.67° C | 88% | 1009 hPa | - | - | - | - |
| 1777525802 | 26.67° C | 88% | 1009 hPa | - | - | - | - |
| 1777525176 | 26.67° C | 88% | 1009 hPa | - | - | - | - |
| 1777524577 | 28.89° C | 83% | 1010 hPa | - | - | - | - |
| 1777523978 | 30° C | 79% | 1009 hPa | - | - | - | - |
| 1777522194 | 30.56° C | 74% | 1010 hPa | - | - | - | - |
| 1777520376 | 30.56° C | 74% | 1010 hPa | - | - | - | - |
| 1777518594 | 30° C | 79% | 1010 hPa | - | - | - | - |
| 1777516776 | 28.89° C | 79% | 1010 hPa | - | - | - | - |
| 1777514994 | 27.78° C | 83% | 1011 hPa | - | - | - | - |
| 1777513177 | 26.67° C | 94% | 1011 hPa | - | - | - | - |
| 1777511395 | 26.67° C | 94% | 1011 hPa | - | - | - | - |
| 1777509576 | 26.67° C | 94% | 1011 hPa | - | - | - | - |
| 1777507806 | 25.56° C | 10% | - | - | - | - | - |
| 1777505976 | 25.56° C | 94% | 1010 hPa | - | - | - | - |
| 1777504194 | 25.56° C | 94% | 1009 hPa | - | - | - | - |
| 1777502376 | 25° C | 10% | - | - | - | - | - |
| 1777500594 | 25.56° C | 94% | 1009 hPa | - | - | - | - |
* Rain since midnight (hover to see other rain measurements)
** Current wind speed in m/s (hover to see current wind gust speed)